Satellite-Ground Cal/Val Site Overpasses Predictions

Prediction of Satellite NPP Overpassing Cal/Val Site: Antarctic Dome C

Ground Cal/Val Site Location: Latitude: -75.10, Longitude: 123.35; Satellite-Ground Site NADIR distance within 100 km.

Table of predicted overpasses for the next 14.0 days since TLE Epoch: 12/15/2017
Interval Starting Time Ending Time Minimum Distance Time Minimum Distance (km)
1 12/16/2017 14:36:33 12/16/2017 14:36:48 12/16/2017 14:36:40 84.84
2 12/17/2017 07:38:05 12/17/2017 07:38:32 12/17/2017 07:38:19 38.67
3 12/18/2017 07:19:19 12/18/2017 07:19:39 12/18/2017 07:19:29 71.27
4 12/20/2017 15:01:33 12/20/2017 15:01:57 12/20/2017 15:01:45 59.28
5 12/21/2017 14:42:42 12/21/2017 14:43:07 12/21/2017 14:42:54 50.05
6 12/22/2017 07:44:23 12/22/2017 07:44:43 12/22/2017 07:44:33 73.76
7 12/23/2017 07:25:29 12/23/2017 07:25:57 12/23/2017 07:25:43 34.04
8 12/25/2017 15:07:56 12/25/2017 15:08:02 12/25/2017 15:07:59 96.96
9 12/26/2017 14:48:54 12/26/2017 14:49:23 12/26/2017 14:49:09 14.42


NCC Satellite Cal/Val Overpasses Prediction Service
